User: anonymous   Login
Location: Edmonton
(53.5500°N, 113.5000°W)
Time: 09:10:21
(UTC-07:00)
Language:

CZ-4C R/B - Orbit

View from above orbital plane
View from above orbital plane
View from above satellite
View from above satellite

Ground track
Ground track

The orbit data is extracted from the following two-line orbital elements,

1 36416U 10009D   18049.93456889 -.00000060 +00000-0 +23406-4 0  9990
2 36416 063.4378 322.3052 0411364 355.8059 003.9568 13.69530283398005
Epoch (UTC): 18 February 2018 22:25:46
Eccentricity: 0.0411364
inclination: 63.4378°
perigee height: 698 km
apogee height: 1305 km
right ascension of ascending node: 322.3052°
argument of perigee: 355.8059°
revolutions per day: 13.69530283
mean anomaly at epoch: 3.9568°
orbit number at epoch: 39800

The dashed part of the orbit path shows where the satellite is in the earth's shadow,  

DLR